STARLINK-35812

Last updated on Wed Dec 31 2025 00:02:06 GMT+0000 (Coordinated Universal Time)

1 66574U 25268T 25364.58335648 .00062721 00000+0 22732-2 0 9998 2 66574 43.0004 17.5416 0000938 256.0043 278.8560 15.27525375 6021
UTC large
Height (km)
Speed (km/s)
/
Latitude / Longitude
Inclination (degrees)
Orbital Period (minutes)
Azimuth
Elevation
Range (km)
Doppler Factor

Next 0 passes for location: London (51.5072 / 0.1276)

Sorry there are no passes over London.